ヒル彗星

C/2008 L3 ( Hill )

English version
Home page
Total 6,336 html files since Dec. 4, 1995
Updated on August 10, 2008

---------------------------------------------------------------------

・ プロフィール

発見日 2008年6月13日
発見光度 18.9等
発見者 R. E. Hill (Catalina Sky Survey)

・ 写真集

・ 軌道要素

T 2008 Apr. 22.3613 TT                                  MPC
q   2.010854             (2000.0)            P               Q
z  +0.003955       Peri.  101.7961      -0.1154259      -0.9077696
                   Node    24.1895      -0.6051996      -0.2576647
e   0.992047       Incl.  100.2036      +0.7876613      -0.3310035
From 50 observations 2008 June 13-Aug. 3.

・ 星図

・ 光度変化

        m1 = 12.5 + 5 logΔ + 10.0 log r

---------------------------------------------------------------------

軌道要素はM.P.E.C. 2008-P08に掲載されたものです。
星図はステラナビゲータ Ver.8 (アストロアーツ) で作成したものです。
光度グラフはComet for Windowsで作成したものです。

---------------------------------------------------------------------

Copyright(C) 1995-2008 Seiichi Yoshida (comet@aerith.net). All rights reserved.